Location: ????????
(55.4000°N, 39.1167°E)
Time: 07:44:27
(UTC+00:00)

Cosmos 1470 - Pass Details

Date: 19 May 2025
Orbit: 455 x 466 km, 82.5° (Epoch: 15 June)

Event Time Altitude Azimuth Distance (km) Brightness Sun altitude
Rises 21:28:26 0° 340° (NNW) 2,520 7.5 -14.6°
Reaches altitude 10° 21:30:44 10° 328° (NNW) 1,639 6.1 -14.6°
Maximum altitude 21:33:47 27° 269° (W) 944 4.0 -14.6°
Enters shadow 21:35:22 19° 229° (SW) 1,173 4.1 -14.6°
